User: anonymous   Login
Location: Unspecified
(0.0000°N, 0.0000°E)
Time: 04:16:46
(UTC+02:00)
Language:

ISS - Orbit

View from above orbital plane
View from above orbital plane
View from above satellite
View from above satellite

Ground track
Ground track

The orbit data is extracted from the following two-line orbital elements,

1 25544U 98067A   16121.92014773  .00004887  00000-0  80268-4 0  9999
2 25544  51.6442 293.8179 0001843  84.4656  70.3444 15.54386075997621
Epoch (UTC): 30 April 2016 22:05:00
Eccentricity: 0.0001843
inclination: 51.6442°
perigee height: 402 km
apogee height: 405 km
right ascension of ascending node: 293.8179°
argument of perigee: 84.4656°
revolutions per day: 15.54386075
mean anomaly at epoch: 70.3444°
orbit number at epoch: 99762

The dashed part of the orbit path shows where the satellite is in the earth's shadow,  

DLR